[[{"header":{"parameterUnit":"m.s-1","parameterCategory":2,"la1":30.2991,"la2":30.254,"lo1":-89.0895,"lo2":-89.0444,"dy":0.0017,"dx":0.0017,"nx":28,"ny":28,"refTime":"2023-10-16T09:00:00:Z","depth":"0","parameterNumber":2,"parameterNumberName":"U-component_of_CURRENTS"},"data":[0,0,0,0,0,0,0,0,0,0,0,0,0,0,0,0,0,0,0,0,0,0,0,0,0,0,0,0,0,0,0,0,0,0,0,0,0,0,0,0,0,0,0,0,0,0,0,0,0,0,0,0,0,0,0,0,0,0,0.2651,0.2652,0,0.2643,0.2643,0.2642,0.2676,0.2678,0.268,0.2681,0.2643,0.264,0.2638,0,0,0,0,0,0,0,0,0,0,0,0,0,0.2587,0.2588,0.2651,0.2652,0.2653,0.2644,0.2643,0.2642,0.2676,0.2678,0.268,0.2682,0.2644,0.2641,0.2637,0,0,0,0,0,0,0,0,0,0,0,0,0,0.2594,0.2589,0.2651,0.2674,0.2677,0.2644,0.2643,0.2642,0.2676,0.2678,0.2681,0.2683,0.2645,0.2641,0.2637,0.2561,0,0,0.2625,0.2623,0,0,0,0,0,0,0,0,0.2593,0.2595,0.267,0.2673,0.2676,0.267,0.2607,0.2616,0.2675,0.2668,0.2681,0.2684,0.2652,0.2648,0.263,0.2559,0.2558,0.2625,0.2622,0.2621,0.2619,0,0,0,0,0,0,0,0.2593,0.2595,0.264,0.2671,0.2674,0.2648,0.2652,0.2607,0.2639,0.2669,0.2673,0.2684,0.2653,0.2634,0.263,0.2557,0.2625,0.2621,0.2619,0.2617,0.2518,0.2518,0,0,0,0,0,0,0.2613,0.2595,0.2641,0.2641,0.2649,0.2648,0.2652,0.2663,0.264,0.2642,0.2681,0.2685,0.2639,0.2634,0.2628,0.2624,0.2621,0.2617,0.2615,0.2519,0.2518,0.2518,0,0,0,0,0,0,0.2611,0.2617,0.2641,0.2624,0.2626,0.2649,0.2659,0.2662,0.2662,0.2652,0.2652,0.2684,0.2641,0.2634,0.2596,0.262,0.2615,0.2612,0.2519,0.2518,0.2518,0.2561,0,0,0,0,0,0,0.2609,0.2616,0.2619,0.2625,0.2629,0.2637,0.2658,0.266,0.2668,0.2673,0.2652,0.2651,0.2642,0.2602,0.2592,0.2615,0.2609,0.2519,0.2519,0.2518,0.256,0.2562,0.2564,0,0,0,0,0,0.2607,0.2616,0.2618,0.2624,0.2636,0.2637,0.2635,0.2653,0.2666,0.2662,0.2644,0.2653,0.2593,0.2596,0.2586,0.2609,0.2519,0.2519,0.2518,0.2559,0.2561,0.2563,0,0,0,0,0,0,0.2585,0.2621,0.2624,0.2642,0.2644,0.2647,0.2647,0.2652,0.2631,0.2638,0.2624,0.2619,0.261,0.2584,0.2588,0.2578,0.2567,0.2564,0.2601,0.2603,0.2605,0.2687,0.2605,0,0,0,0,0,0.2581,0.2603,0.2617,0.2629,0.2631,0.2632,0.2632,0.2645,0.2636,0.2631,0.2616,0.26,0.259,0.2578,0.2561,0.2525,0.2589,0.2539,0.2541,0.2543,0.2601,0.2716,0.2736,0.2516,0.2516,0.2516,0,0,0.2579,0.2598,0.2612,0.2626,0.2625,0.2639,0.2638,0.2646,0.2662,0.2625,0.2624,0.2602,0.2583,0.2569,0.2563,0.2553,0.2628,0.2542,0.2544,0.2603,0.2718,0.274,0.276,0.2516,0.2516,0.2516,0,0,0.2598,0.2597,0.2628,0.2629,0.2642,0.264,0.2646,0.2646,0.2652,0.2632,0.2631,0.2631,0.2577,0.2597,0.2594,0.2589,0.2641,0.2566,0.2636,0.2745,0.2767,0.2786,0.2862,0.2888,0.2561,0.2561,0.2561,0,0.2595,0.2636,0.263,0.2654,0.2666,0.2647,0.2674,0.2666,0.2654,0.2669,0.2644,0.2637,0.2613,0.2646,0.2653,0.2604,0.2663,0.2628,0.2756,0.2776,0.2796,0.2869,0.2898,0.2563,0.2563,0.2563,0.2563,0,0.2652,0.2667,0.2678,0.271,0.2708,0.2724,0.2722,0.2719,0.2712,0.2721,0.2742,0.2706,0.2722,0.27,0.2675,0.2784,0.2778,0.2754,0.2764,0.2822,0.2893,0.2922,0.2566,0.2565,0.2565,0.2564,0,0,0.2703,0.272,0.2723,0.2744,0.2743,0.2756,0.2768,0.2795,0.2824,0.2809,0.2863,0.2851,0.2851,0.2851,0.2818,0.2903,0.3061,0.2892,0.2897,0.2995,0.33,0.3112,0.3126,0.3067,0.3073,0.3078,0.3283,0,0.2754,0.2805,0.2799,0.2839,0.2867,0.2846,0.2856,0.2871,0.287,0.2903,0.2915,0.2938,0.2899,0.2902,0.2988,0.3047,0.3147,0.3009,0.3208,0.3215,0.3065,0.3156,0.2946,0.3096,0.3311,0.3316,0.332,0,0.2836,0.2854,0.29,0.2918,0.2926,0.2935,0.2964,0.2974,0.3006,0.301,0.3053,0.3051,0.3154,0.3104,0.3306,0.3221,0.3293,0.3338,0.3346,0.3195,0.3083,0.3077,0.3141,0.3017,0.3365,0.3361,0.3358,0,0.291,0.2936,0.2974,0.298,0.2985,0.2999,0.3001,0.3015,0.3028,0.3091,0.3116,0.3216,0.3262,0.3398,0.3461,0.3419,0.3683,0.3624,0.3532,0.3518,0.3394,0.3357,0.3393,0.3823,0.3823,0.3822,0.3822,0,0.2993,0.3038,0.3005,0.3031,0.3063,0.305,0.308,0.3096,0.3114,0.3144,0.318,0.3221,0.3351,0.3467,0.3545,0.362,0.3759,0.3597,0.3581,0.3388,0.3351,0.3277,0.3244,0.383,0.3828,0.3827,0.3825,0,0.3102,0.3082,0.3124,0.3108,0.3101,0.3127,0.3108,0.3128,0.3146,0.319,0.3219,0.3292,0.3409,0.3506,0.3708,0.3692,0.3674,0.3792,0.3527,0.3472,0.319,0.3166,0.3163,0.3084,0.3733,0.373,0.3727,0,0.3166,0.319,0.317,0.3163,0.3157,0.3164,0.3156,0.3152,0.3158,0.3214,0.3244,0.3345,0.3362,0.3542,0.3556,0.3649,0.3578,0.3502,0.337,0.3185,0.3151,0.3054,0.2983,0.323,0.3224,0.3218,0.3214,0,0.3263,0.3244,0.3253,0.3222,0.3207,0.32,0.3187,0.3182,0.3177,0.3196,0.321,0.3226,0.3299,0.3236,0.3304,0.3343,0.3268,0.3388,0.3309,0.2865,0.2663,0.257,0.3068,0.3167,0.3172,0.3175,0.3178,0.3179,0.3308,0.3314,0.327,0.3245,0.3232,0.3191,0.3132,0.3111,0.308,0.3012,0.312,0.3043,0.2984,0.2991,0.3014,0.2838,0.2925,0.273,0.2756,0.2704,0.2498,0.2851,0.2834,0.2837,0.2839,0.2841,0.2843,0,0.3288,0.3279,0.3278,0.32,0.3155,0.316,0.3101,0.2986,0.2875,0.2871,0.2822,0.2673,0.2551,0.2504,0.2349,0.224,0.2195,0.2178,0.2041,0.2036,0.2456,0.2294,0.2018,0.2018,0.2018,0.2019,0.2019,0.2019,0.3267,0.323,0.3208,0.3092,0.3052,0.2897,0.2828,0.2686,0.2609,0.2404,0.2267,0.2247,0.218,0.2025,0.1843,0.1806,0.1709,0.1576,0.1671,0.1975,0.2029,0.2081,0.1919,0.157,0.157,0.1123,0.1119,0.1117]},{"header":{"parameterUnit":"m.s-1","parameterCategory":2,"la1":30.2991,"la2":30.254,"lo1":-89.0895,"lo2":-89.0444,"dy":0.0017,"dx":0.0017,"nx":28,"ny":28,"refTime":"2023-10-16T09:00:00:Z","depth":"0","parameterNumber":3,"parameterNumberName":"V-component_of_CURRENTS"},"data":[0,0,0,0,0,0,0,0,0,0,0,0,0,0,0,0,0,0,0,0,0,0,0,0,0,0,0,0,0,0,0,0,0,0,0,0,0,0,0,0,0,0,0,0,0,0,0,0,0,0,0,0,0,0,0,0,0,0,-0.0528,-0.0528,0,-0.056,-0.056,-0.056,-0.061,-0.0611,-0.0613,-0.0614,-0.0678,-0.0678,-0.0679,0,0,0,0,0,0,0,0,0,0,0,0,0,-0.045,-0.0451,-0.0527,-0.0528,-0.0529,-0.056,-0.056,-0.056,-0.061,-0.0611,-0.0613,-0.0614,-0.0678,-0.0678,-0.0679,0,0,0,0,0,0,0,0,0,0,0,0,0,-0.0479,-0.0451,-0.0527,-0.0561,-0.0565,-0.056,-0.056,-0.056,-0.0609,-0.0611,-0.0613,-0.0615,-0.0677,-0.0678,-0.0679,-0.0644,0,0,-0.0681,-0.0681,0,0,0,0,0,0,0,0,-0.0477,-0.0481,-0.0555,-0.0559,-0.0563,-0.0587,-0.0557,-0.0591,-0.0609,-0.0587,-0.0614,-0.0616,-0.0652,-0.0655,-0.0649,-0.0647,-0.0649,-0.0681,-0.0681,-0.0682,-0.0682,0,0,0,0,0,0,0,-0.0475,-0.048,-0.0536,-0.0556,-0.0561,-0.0555,-0.0561,-0.0562,-0.0605,-0.0589,-0.0594,-0.0605,-0.0654,-0.0649,-0.0652,-0.065,-0.0681,-0.0682,-0.0682,-0.0682,-0.0649,-0.0648,0,0,0,0,0,0,-0.0482,-0.0478,-0.0535,-0.0537,-0.0529,-0.0555,-0.0562,-0.0574,-0.0605,-0.0612,-0.0603,-0.0607,-0.0646,-0.0651,-0.0654,-0.0614,-0.0682,-0.0682,-0.0683,-0.0651,-0.0649,-0.0648,0,0,0,0,0,0,-0.048,-0.0486,-0.0533,-0.0512,-0.0518,-0.0556,-0.0567,-0.0573,-0.0573,-0.0616,-0.0623,-0.0599,-0.0648,-0.0653,-0.066,-0.0617,-0.0683,-0.0683,-0.0652,-0.065,-0.0648,-0.0534,0,0,0,0,0,0,-0.0477,-0.0485,-0.0485,-0.0512,-0.052,-0.0525,-0.0566,-0.0573,-0.0579,-0.0584,-0.0614,-0.0622,-0.065,-0.0658,-0.066,-0.0619,-0.0684,-0.0654,-0.0651,-0.0649,-0.054,-0.0529,-0.0519,0,0,0,0,0,-0.0474,-0.0464,-0.0485,-0.0492,-0.0523,-0.0524,-0.0526,-0.0556,-0.0577,-0.0565,-0.0594,-0.0621,-0.0644,-0.0658,-0.066,-0.0619,-0.0655,-0.0652,-0.0649,-0.0544,-0.0531,-0.0519,0,0,0,0,0,0,-0.0425,-0.047,-0.0493,-0.0497,-0.051,-0.0535,-0.0526,-0.0546,-0.0556,-0.0563,-0.0605,-0.0613,-0.0602,-0.0628,-0.0642,-0.0604,-0.0653,-0.065,-0.0572,-0.056,-0.055,-0.0475,-0.0685,0,0,0,0,0,-0.0416,-0.0424,-0.0461,-0.046,-0.0466,-0.0493,-0.0496,-0.0515,-0.0534,-0.054,-0.0567,-0.0588,-0.0587,-0.0591,-0.0603,-0.0578,-0.0541,-0.0554,-0.0544,-0.0535,-0.0476,-0.0364,-0.0336,-0.0638,-0.0638,-0.0638,0,0,-0.0399,-0.0422,-0.0428,-0.045,-0.0462,-0.0452,-0.0498,-0.0496,-0.0479,-0.0544,-0.0529,-0.0554,-0.0575,-0.0552,-0.0548,-0.057,-0.0442,-0.0531,-0.0523,-0.0468,-0.0358,-0.0327,-0.0301,-0.0636,-0.0636,-0.0637,0,0,-0.0356,-0.0385,-0.0375,-0.038,-0.0399,-0.0414,-0.0412,-0.0436,-0.0438,-0.0433,-0.0466,-0.0451,-0.0482,-0.0461,-0.046,-0.0394,-0.0393,-0.0423,-0.0301,-0.0194,-0.0166,-0.0142,-0.01,-0.0072,-0.0414,-0.0414,-0.0413,0,-0.0331,-0.0327,-0.0366,-0.035,-0.0342,-0.0393,-0.0361,-0.0366,-0.0389,-0.0351,-0.042,-0.0376,-0.0419,-0.0324,-0.032,-0.0361,-0.0325,-0.0347,-0.0174,-0.0149,-0.0125,-0.0088,-0.0058,-0.0408,-0.0408,-0.0409,-0.041,0,-0.0282,-0.0273,-0.026,-0.0263,-0.0254,-0.0236,-0.0253,-0.0235,-0.0257,-0.0246,-0.0176,-0.0216,-0.017,-0.02,-0.0248,-0.01,-0.014,-0.0174,-0.0193,-0.0086,-0.0057,-0.0028,-0.0399,-0.0402,-0.0403,-0.0405,0,0,-0.0238,-0.0228,-0.022,-0.0201,-0.0203,-0.0189,-0.0141,-0.0087,-0.0014,-0.0038,0.008,0.0062,0.0067,0.0073,0.003,0.0103,0.0249,0.0038,0.004,0.0101,0.0459,0.034,0.0358,0.0252,0.0259,0.0264,0.0397,0,-0.0184,-0.0135,-0.0133,-0.0073,-0.0055,-0.0049,0.0012,0.0058,0.0088,0.0182,0.02,0.0266,0.0163,0.019,0.026,0.0262,0.0338,0.0215,0.0329,0.0333,0.0234,0.0394,0.0318,0.0425,0.0425,0.043,0.0433,0,-0.0149,-0.0112,-0.0048,0.0026,0.0044,0.0083,0.0202,0.0252,0.0377,0.0414,0.0515,0.0518,0.0628,0.0507,0.0638,0.0565,0.0542,0.0526,0.053,0.0419,0.0271,0.0326,0.0477,0.0379,0.0477,0.0474,0.047,0,-0.0136,-0.0057,0.0001,0.0018,0.0096,0.0159,0.0215,0.0332,0.0418,0.0578,0.067,0.079,0.0852,0.0892,0.0822,0.0763,0.0945,0.0855,0.0736,0.0723,0.0687,0.066,0.0788,0.099,0.0989,0.0989,0.0989,0,-0.0114,-0.007,0.0013,0.0037,0.0144,0.0198,0.0337,0.0416,0.0583,0.0736,0.0794,0.0933,0.0958,0.1029,0.0957,0.0942,0.1062,0.0823,0.0791,0.071,0.0686,0.0614,0.0554,0.0994,0.0993,0.0992,0.0991,0,-0.0154,-0.0102,-0.0035,0.0087,0.0129,0.0198,0.0363,0.0492,0.0637,0.0847,0.091,0.1086,0.1185,0.116,0.1219,0.1105,0.1025,0.104,0.0902,0.0851,0.0613,0.056,0.0683,0.0648,0.0975,0.0973,0.0972,0,-0.0178,-0.0148,-0.0024,0.0038,0.0087,0.0207,0.0316,0.048,0.0634,0.0936,0.1061,0.1221,0.1336,0.1357,0.1208,0.1113,0.1009,0.0946,0.0823,0.0657,0.0578,0.0534,0.0493,0.0802,0.0799,0.0797,0.0796,0,-0.0202,-0.0162,-0.0092,0.0039,0.0146,0.028,0.0454,0.0575,0.0824,0.1008,0.1283,0.14,0.1414,0.1314,0.1141,0.1039,0.0852,0.0894,0.0818,0.0561,0.0442,0.0368,0.06,0.0777,0.0779,0.078,0.0781,0.0782,-0.021,-0.0164,-0.0046,0.0072,0.0206,0.0393,0.0512,0.0722,0.0959,0.1265,0.1376,0.1542,0.1376,0.1141,0.0998,0.0661,0.0714,0.0536,0.0517,0.0511,0.0406,0.0553,0.0617,0.0618,0.0619,0.062,0.062,0,-0.0173,-0.0101,0.0004,0.0179,0.0339,0.0403,0.0655,0.0791,0.1056,0.1286,0.1482,0.1449,0.1204,0.0959,0.0526,0.0321,0.0268,0.0231,0.0189,0.019,0.0416,0.033,0.0221,0.0221,0.0221,0.0221,0.0221,0.0221,-0.0139,-0.0029,0.0034,0.0289,0.0414,0.0632,0.077,0.0945,0.1123,0.1333,0.1406,0.1457,0.1258,0.0596,0.015,0.0055,-0.0035,-0.0091,-0.0081,0.0064,0.0091,0.0117,0.0025,-0.0146,-0.0146,-0.0317,-0.0319,-0.0321]}],[{"header":{"parameterUnit":"m.s-1","parameterCategory":2,"la1":30.2991,"la2":30.254,"lo1":-89.0895,"lo2":-89.0444,"dy":0.0017,"dx":0.0017,"nx":28,"ny":28,"refTime":"2023-10-16T09:00:00:Z","depth":"2","parameterNumber":2,"parameterNumberName":"U-component_of_CURRENTS"},"data":[0,0,0,0,0,0,0,0,0,0,0,0,0,0,0,0,0,0,0,0,0,0,0,0,0,0,0,0,0,0,0,0,0,0,0,0,0,0,0,0,0,0,0,0,0,0,0,0,0,0,0,0,0,0,0,0,0,0,0.1906,0.1906,0,0.19,0.1899,0.1898,0.1866,0.1866,0.1866,0.1866,0.1882,0.1882,0.1883,0,0,0,0,0,0,0,0,0,0,0,0,0,0.1868,0.1869,0.1906,0.1906,0.1907,0.19,0.1899,0.1898,0.1866,0.1866,0.1866,0.1866,0.1882,0.1882,0.1883,0,0,0,0,0,0,0,0,0,0,0,0,0,0.1869,0.1869,0.1906,0.1895,0.1895,0.19,0.1899,0.1898,0.1866,0.1866,0.1866,0.1866,0.1881,0.1882,0.1883,0.1892,0,0,0.1885,0.1886,0,0,0,0,0,0,0,0,0.1869,0.187,0.1896,0.1896,0.1896,0.189,0.1892,0.1899,0.1866,0.187,0.1866,0.1866,0.1891,0.1891,0.188,0.1892,0.1893,0.1885,0.1886,0.1886,0.1886,0,0,0,0,0,0,0,0.1869,0.187,0.1896,0.1897,0.1897,0.1884,0.1883,0.1892,0.1877,0.187,0.1869,0.1879,0.189,0.1879,0.188,0.1893,0.1885,0.1886,0.1887,0.1887,0.1859,0.1858,0,0,0,0,0,0,0.1885,0.187,0.1897,0.1897,0.1889,0.1886,0.1884,0.1886,0.1876,0.1876,0.188,0.1878,0.1878,0.188,0.1881,0.192,0.1886,0.1887,0.1887,0.186,0.1858,0.1857,0,0,0,0,0,0,0.1884,0.1887,0.1897,0.1889,0.189,0.1887,0.1889,0.1886,0.1889,0.1885,0.1884,0.1888,0.1878,0.188,0.1872,0.192,0.1887,0.1888,0.1861,0.186,0.1858,0.1981,0,0,0,0,0,0,0.1883,0.1887,0.1901,0.189,0.1892,0.1893,0.189,0.1887,0.1899,0.1896,0.1892,0.1892,0.1878,0.1871,0.1873,0.192,0.1889,0.1863,0.1861,0.1858,0.1978,0.1983,0.1988,0,0,0,0,0,0.1881,0.1892,0.1901,0.1905,0.1908,0.1894,0.1892,0.1885,0.19,0.1889,0.1879,0.1892,0.1857,0.187,0.1873,0.1923,0.1864,0.1861,0.1859,0.1976,0.1982,0.1988,0,0,0,0,0,0,0.1873,0.1891,0.19,0.1914,0.1907,0.1891,0.1899,0.1898,0.1884,0.1898,0.1885,0.1882,0.1902,0.187,0.1885,0.1894,0.1861,0.1858,0.1949,0.1955,0.1959,0.2001,0.1889,0,0,0,0,0,0.1884,0.1904,0.1903,0.1916,0.192,0.1917,0.1919,0.1916,0.1905,0.19,0.1893,0.1882,0.189,0.1887,0.188,0.1888,0.1913,0.191,0.1915,0.1919,0.1946,0.2057,0.2078,0.1848,0.1848,0.1848,0,0,0.1903,0.1902,0.1924,0.1918,0.192,0.1924,0.1915,0.1925,0.1937,0.1907,0.1917,0.1914,0.1894,0.1905,0.1909,0.1887,0.198,0.1916,0.1922,0.1946,0.2057,0.2081,0.2102,0.1846,0.1847,0.1847,0,0,0.1919,0.1932,0.1951,0.1951,0.1958,0.1945,0.1954,0.1947,0.1953,0.1954,0.1952,0.1971,0.1946,0.1959,0.1961,0.1982,0.2014,0.1965,0.2026,0.2134,0.2157,0.2177,0.2189,0.221,0.1956,0.1957,0.1957,0,0.1933,0.1949,0.1951,0.1958,0.1968,0.196,0.1974,0.1978,0.1967,0.1993,0.1964,0.1997,0.1984,0.2045,0.2038,0.2009,0.2039,0.2023,0.2152,0.2173,0.2192,0.22,0.2222,0.1962,0.1962,0.1961,0.1961,0,0.1963,0.1977,0.1985,0.1994,0.1998,0.2007,0.2016,0.203,0.2037,0.2051,0.211,0.2094,0.2126,0.2112,0.2083,0.2201,0.2166,0.2168,0.2165,0.2225,0.2225,0.2246,0.197,0.1968,0.1967,0.1965,0,0,0.1975,0.2003,0.2005,0.2023,0.2022,0.2028,0.2061,0.209,0.2149,0.2149,0.2234,0.2238,0.2269,0.227,0.226,0.2323,0.2457,0.2301,0.2304,0.2358,0.2646,0.2389,0.2386,0.251,0.2515,0.2519,0.2577,0,0.1988,0.2022,0.2021,0.2051,0.2073,0.2082,0.2115,0.2156,0.2185,0.226,0.2304,0.2374,0.2321,0.2366,0.243,0.246,0.2525,0.2437,0.2539,0.254,0.2346,0.2407,0.2259,0.228,0.2597,0.26,0.2603,0,0.201,0.2026,0.2074,0.2105,0.2118,0.2139,0.2214,0.2242,0.2346,0.2392,0.2484,0.252,0.2618,0.2576,0.2693,0.2647,0.2669,0.2673,0.2677,0.242,0.2323,0.2275,0.2306,0.2637,0.2634,0.2632,0.2629,0,0.2041,0.2055,0.2098,0.2113,0.2154,0.2195,0.2217,0.2302,0.2346,0.251,0.2568,0.2695,0.2754,0.2842,0.2821,0.2801,0.2929,0.2907,0.2692,0.267,0.2552,0.2509,0.3039,0.3039,0.3039,0.3039,0.3039,0,0.2061,0.2108,0.2127,0.2168,0.2217,0.2243,0.2317,0.2384,0.2482,0.2575,0.2658,0.2739,0.2835,0.2889,0.2899,0.2823,0.3005,0.2717,0.2692,0.257,0.2531,0.2849,0.2826,0.3041,0.3041,0.304,0.304,0,0.2153,0.2149,0.2206,0.2244,0.2246,0.2309,0.2346,0.2418,0.2504,0.2636,0.2703,0.28,0.2832,0.285,0.2951,0.2864,0.2864,0.2806,0.2586,0.253,0.2512,0.2494,0.258,0.2572,0.2565,0.2559,0.2554,0,0.2254,0.2275,0.2279,0.2284,0.2313,0.2362,0.2402,0.2458,0.2534,0.266,0.2745,0.2782,0.2775,0.2725,0.2641,0.2573,0.269,0.2371,0.229,0.251,0.2478,0.247,0.2462,0.218,0.2172,0.2166,0.2161,0,0.2418,0.2388,0.2404,0.2417,0.2441,0.2428,0.2492,0.2521,0.262,0.2658,0.2704,0.2683,0.2597,0.2401,0.2259,0.2212,0.2355,0.2228,0.2632,0.2261,0.2122,0.2092,0.2101,0.2107,0.2112,0.2116,0.2119,0.2121,0.254,0.2555,0.2533,0.2519,0.2541,0.2512,0.2446,0.249,0.2495,0.2486,0.2567,0.2419,0.235,0.1972,0.1876,0.178,0.1912,0.1853,0.188,0.1911,0.1797,0.1648,0.152,0.1521,0.1523,0.1525,0.1526,0,0.2655,0.2617,0.2632,0.2571,0.2556,0.255,0.2509,0.2376,0.2287,0.2312,0.2219,0.1922,0.1723,0.1661,0.1431,0.1333,0.1408,0.1268,0.1415,0.1467,0.1515,0.1389,0.0999,0.0997,0.0996,0.0994,0,0,0.271,0.2692,0.2635,0.2566,0.2528,0.2403,0.2309,0.211,0.2026,0.1829,0.1714,0.1699,0.1672,0.1363,0.1257,0.112,0.1306,0.1062,0.1491,0.1727,0.1773,0.185,0.171,0,0,0,0,0]},{"header":{"parameterUnit":"m.s-1","parameterCategory":2,"la1":30.2991,"la2":30.254,"lo1":-89.0895,"lo2":-89.0444,"dy":0.0017,"dx":0.0017,"nx":28,"ny":28,"refTime":"2023-10-16T09:00:00:Z","depth":"2","parameterNumber":3,"parameterNumberName":"V-component_of_CURRENTS"},"data":[0,0,0,0,0,0,0,0,0,0,0,0,0,0,0,0,0,0,0,0,0,0,0,0,0,0,0,0,0,0,0,0,0,0,0,0,0,0,0,0,0,0,0,0,0,0,0,0,0,0,0,0,0,0,0,0,0,0,0.0416,0.0416,0,0.0385,0.0385,0.0384,0.0369,0.0369,0.0369,0.0369,0.0268,0.0265,0.0262,0,0,0,0,0,0,0,0,0,0,0,0,0,0.0331,0.0334,0.0416,0.0416,0.0416,0.0385,0.0385,0.0384,0.0369,0.0369,0.0369,0.0369,0.0269,0.0265,0.0262,0,0,0,0,0,0,0,0,0,0,0,0,0,0.0339,0.0334,0.0416,0.0406,0.0405,0.0385,0.0385,0.0384,0.0369,0.0369,0.0369,0.0369,0.027,0.0266,0.0261,0.0229,0,0,0.0248,0.0246,0,0,0,0,0,0,0,0,0.0339,0.0342,0.0408,0.0407,0.0406,0.0383,0.0317,0.0329,0.0369,0.038,0.0369,0.037,0.0301,0.0294,0.0285,0.0224,0.022,0.0248,0.0245,0.0243,0.0242,0,0,0,0,0,0,0,0.0339,0.0343,0.0402,0.0408,0.0406,0.0358,0.0361,0.0319,0.0336,0.0379,0.0379,0.0378,0.0299,0.029,0.0283,0.0218,0.0248,0.0244,0.0241,0.024,0.0198,0.0199,0,0,0,0,0,0,0.0354,0.0343,0.0403,0.0401,0.0375,0.036,0.0363,0.0388,0.0338,0.0332,0.0378,0.0378,0.0297,0.0288,0.0279,0.0257,0.0243,0.0239,0.0237,0.0197,0.0198,0.02,0,0,0,0,0,0,0.0353,0.0361,0.0404,0.0371,0.0374,0.0363,0.039,0.0387,0.0376,0.0339,0.0331,0.037,0.0297,0.0285,0.0254,0.0252,0.0237,0.0233,0.0195,0.0197,0.0199,0.02,0,0,0,0,0,0,0.0351,0.0361,0.0374,0.0373,0.0376,0.0403,0.039,0.0387,0.0377,0.0376,0.0329,0.032,0.0296,0.0261,0.025,0.0246,0.023,0.0193,0.0196,0.0198,0.0198,0.0202,0.0206,0,0,0,0,0,0.0348,0.0369,0.0375,0.0382,0.0399,0.0404,0.0401,0.0391,0.0376,0.0379,0.0349,0.0321,0.0272,0.0258,0.0245,0.0239,0.0191,0.0195,0.0198,0.0197,0.0201,0.0205,0,0,0,0,0,0,0.0331,0.037,0.0376,0.0407,0.0411,0.0403,0.0396,0.0388,0.0366,0.0358,0.032,0.0309,0.0283,0.0271,0.0257,0.0245,0.0235,0.0236,0.0239,0.0242,0.0246,0.0289,0.0226,0,0,0,0,0,0.0337,0.037,0.0387,0.0409,0.041,0.0401,0.0396,0.0394,0.0378,0.0368,0.0338,0.0313,0.0287,0.0273,0.0248,0.0228,0.023,0.0228,0.0232,0.0234,0.0266,0.0277,0.0284,0.0211,0.0211,0.0211,0,0,0.0331,0.036,0.0373,0.0407,0.0403,0.0418,0.0398,0.0398,0.0407,0.0358,0.0347,0.0311,0.0284,0.0267,0.0257,0.0255,0.025,0.0239,0.024,0.0271,0.0281,0.0288,0.0294,0.0213,0.0213,0.0212,0,0,0.034,0.0365,0.0392,0.0404,0.0417,0.0419,0.0421,0.0417,0.041,0.0397,0.0367,0.0343,0.0301,0.029,0.0276,0.029,0.0262,0.028,0.0329,0.0338,0.0344,0.0349,0.0325,0.0328,0.0288,0.0288,0.0288,0,0.0328,0.0381,0.0394,0.0421,0.0438,0.0424,0.045,0.0439,0.0426,0.0427,0.0402,0.0363,0.032,0.0316,0.0322,0.0295,0.029,0.0301,0.0341,0.0346,0.0352,0.0326,0.033,0.0288,0.0288,0.0288,0.0288,0,0.0365,0.0397,0.0408,0.0456,0.0472,0.0489,0.0494,0.0496,0.0481,0.0473,0.0461,0.0412,0.0406,0.0374,0.0343,0.0363,0.034,0.0332,0.0322,0.0358,0.033,0.0333,0.0289,0.0289,0.0289,0.0289,0,0,0.0369,0.0426,0.0432,0.0465,0.0498,0.0521,0.0538,0.056,0.0588,0.0546,0.058,0.051,0.0492,0.048,0.0436,0.0433,0.0429,0.0404,0.0404,0.0368,0.043,0.0327,0.0321,0.0424,0.0425,0.0427,0.038,0,0.0394,0.0462,0.0487,0.0544,0.0577,0.059,0.0617,0.0633,0.0638,0.0661,0.0608,0.0615,0.0529,0.0535,0.0512,0.046,0.0447,0.0442,0.0414,0.0413,0.0308,0.0325,0.0351,0.0307,0.0384,0.0384,0.0385,0,0.0426,0.0477,0.0541,0.0614,0.0631,0.0662,0.0736,0.076,0.0779,0.0788,0.0783,0.0751,0.0726,0.0666,0.059,0.0591,0.0524,0.0472,0.0469,0.0388,0.0319,0.0293,0.031,0.0391,0.039,0.039,0.0389,0,0.0441,0.0515,0.0577,0.06,0.0673,0.0709,0.0748,0.0791,0.0837,0.0883,0.0931,0.0881,0.0882,0.0797,0.066,0.0642,0.0579,0.0542,0.0383,0.0373,0.0401,0.0391,0.0516,0.0516,0.0516,0.0516,0.0516,0,0.0468,0.0513,0.0588,0.0622,0.0708,0.0746,0.0831,0.0875,0.0947,0.1023,0.0999,0.1047,0.0923,0.0857,0.0719,0.0549,0.0621,0.0403,0.0366,0.0396,0.0386,0.0476,0.0472,0.0514,0.0514,0.0515,0.0515,0,0.0469,0.0509,0.0595,0.0688,0.0713,0.0783,0.0887,0.0949,0.1026,0.1138,0.1167,0.1177,0.1075,0.0916,0.0777,0.0628,0.048,0.0406,0.0424,0.0388,0.0251,0.0248,0.023,0.0227,0.0224,0.0221,0.0219,0,0.0479,0.0519,0.0641,0.0695,0.0737,0.0827,0.0882,0.0976,0.1071,0.121,0.1279,0.1231,0.1178,0.0908,0.066,0.0399,0.0402,0.0269,0.0232,0.0262,0.0227,0.0229,0.0231,0.0262,0.0261,0.0259,0.0258,0,0.0504,0.0545,0.0609,0.0715,0.0791,0.0905,0.101,0.11,0.123,0.1316,0.1413,0.1377,0.1132,0.0867,0.052,0.0356,0.0303,0.0226,0.0302,0.0309,0.0282,0.0251,0.0254,0.0246,0.0247,0.0248,0.0249,0.0249,0.0506,0.0561,0.0629,0.0747,0.0834,0.098,0.1065,0.1175,0.1304,0.1427,0.1434,0.1354,0.1135,0.0621,0.0395,0.0161,0.0153,0.0085,0.0095,0.0105,0.0095,0.0063,-0.0018,-0.0018,-0.0018,-0.0019,-0.0019,0,0.0502,0.0554,0.0656,0.079,0.0896,0.0953,0.1139,0.1204,0.1321,0.138,0.139,0.1136,0.0872,0.062,0.0256,0.0038,0.0072,-0.0019,0.0096,0.0108,0.0118,0.0115,0.0004,0.0004,0.0003,0.0003,0,0,0.0479,0.0557,0.0638,0.0815,0.0907,0.1031,0.1139,0.1213,0.1273,0.1271,0.1216,0.1129,0.0876,0.0618,0.0363,0.0186,0.0193,0.0145,0.0144,0.0321,0.0334,0.0188,0.0194,0,0,0,0,0]}],[{"header":{"parameterUnit":"m.s-1","parameterCategory":2,"la1":30.2991,"la2":30.254,"lo1":-89.0895,"lo2":-89.0444,"dy":0.0017,"dx":0.0017,"nx":28,"ny":28,"refTime":"2023-10-16T09:00:00:Z","depth":"4","parameterNumber":2,"parameterNumberName":"U-component_of_CURRENTS"},"data":[0,0,0,0,0,0,0,0,0,0,0,0,0,0,0,0,0,0,0,0,0,0,0,0,0,0,0,0,0,0,0,0,0,0,0,0,0,0,0,0,0,0,0,0,0,0,0,0,0,0,0,0,0,0,0,0,0,0,0.0511,0.0512,0,0.06,0.0601,0.0602,0.0643,0.0643,0.0643,0.0643,0.0709,0.0711,0.0713,0,0,0,0,0,0,0,0,0,0,0,0,0,0.0528,0.0527,0.0511,0.0512,0.0513,0.06,0.0601,0.0602,0.0644,0.0643,0.0643,0.0643,0.0709,0.0711,0.0713,0,0,0,0,0,0,0,0,0,0,0,0,0,0.056,0.0526,0.0511,0.0543,0.0547,0.0599,0.0601,0.0603,0.0644,0.0643,0.0643,0.0643,0.0708,0.0711,0.0714,0.0738,0,0,0.0723,0.0724,0,0,0,0,0,0,0,0,0.0558,0.0559,0.0537,0.0541,0.0545,0.0609,0.0631,0.0646,0.0644,0.0608,0.0643,0.0643,0.0673,0.0679,0.0699,0.0741,0.0744,0.0723,0.0725,0.0726,0.0727,0,0,0,0,0,0,0,0.0555,0.0557,0.0548,0.0538,0.0543,0.0605,0.0607,0.0635,0.0642,0.0611,0.0614,0.0622,0.0675,0.0696,0.07,0.0745,0.0723,0.0726,0.0727,0.0728,0.0865,0.0867,0,0,0,0,0,0,0.0534,0.0554,0.0545,0.055,0.0549,0.0604,0.0607,0.059,0.0642,0.065,0.0622,0.0623,0.0691,0.0697,0.0703,0.0779,0.0726,0.0729,0.073,0.0864,0.0866,0.0868,0,0,0,0,0,0,0.0533,0.0531,0.0541,0.0555,0.056,0.0602,0.0584,0.0592,0.0626,0.065,0.0658,0.0649,0.0691,0.0699,0.0751,0.078,0.073,0.0733,0.0861,0.0864,0.0867,0.0903,0,0,0,0,0,0,0.0533,0.053,0.0526,0.0552,0.0558,0.0575,0.0584,0.0594,0.063,0.0633,0.0676,0.0681,0.0691,0.0747,0.0754,0.0783,0.0735,0.0859,0.0863,0.0866,0.0899,0.0907,0.0913,0,0,0,0,0,0.0533,0.0519,0.0524,0.0525,0.0545,0.0575,0.0585,0.0617,0.0631,0.0647,0.0688,0.068,0.0774,0.0751,0.0759,0.079,0.0857,0.0862,0.0866,0.0896,0.0905,0.0913,0,0,0,0,0,0,0.0531,0.0523,0.0529,0.0515,0.0546,0.0582,0.0604,0.0627,0.0674,0.0686,0.0707,0.0715,0.0772,0.078,0.0754,0.0841,0.0814,0.082,0.0835,0.0843,0.085,0.0864,0.0737,0,0,0,0,0,0.0525,0.0511,0.0526,0.0523,0.0535,0.0575,0.0598,0.0621,0.066,0.0681,0.0716,0.0756,0.0795,0.0817,0.085,0.0899,0.0903,0.0924,0.0931,0.0937,0.0956,0.0984,0.0995,0.0882,0.0882,0.0882,0,0,0.0525,0.0522,0.0515,0.0524,0.0551,0.0575,0.0589,0.0626,0.0667,0.0681,0.0753,0.0782,0.0814,0.0871,0.0896,0.0881,0.097,0.0942,0.0946,0.0963,0.099,0.1001,0.101,0.0885,0.0884,0.0884,0,0,0.0524,0.0516,0.0509,0.053,0.0566,0.0592,0.0604,0.0653,0.0695,0.0762,0.0785,0.0838,0.0897,0.093,0.0951,0.1017,0.1005,0.1024,0.1071,0.1099,0.1108,0.1116,0.1124,0.1133,0.1027,0.1027,0.1027,0,0.0525,0.0515,0.0521,0.053,0.0557,0.0597,0.0623,0.0669,0.0739,0.0778,0.079,0.0912,0.0929,0.1005,0.1029,0.1032,0.1039,0.1033,0.1106,0.1114,0.1122,0.1129,0.1138,0.1029,0.1029,0.1029,0.1029,0,0.052,0.0526,0.0531,0.0548,0.0583,0.0611,0.0667,0.0721,0.0778,0.0821,0.0924,0.0979,0.1053,0.1062,0.1068,0.114,0.1124,0.1107,0.1079,0.1135,0.1139,0.1148,0.1033,0.1032,0.1031,0.1031,0,0,0.048,0.0514,0.0517,0.054,0.0596,0.0622,0.0697,0.0768,0.0824,0.0911,0.0994,0.108,0.1124,0.1154,0.1181,0.1207,0.1256,0.1186,0.1187,0.1185,0.1309,0.1165,0.116,0.125,0.1252,0.1254,0.1285,0,0.0478,0.0489,0.0521,0.0568,0.0587,0.0655,0.072,0.0796,0.0876,0.0963,0.1047,0.1136,0.1156,0.121,0.1246,0.1241,0.1284,0.1249,0.1265,0.1266,0.1123,0.1167,0.126,0.1291,0.1293,0.1294,0.1295,0,0.0459,0.0476,0.0505,0.0581,0.0598,0.0647,0.076,0.0827,0.0946,0.1018,0.1132,0.1194,0.1281,0.1288,0.1351,0.1327,0.1344,0.134,0.134,0.1203,0.1138,0.1229,0.1311,0.131,0.1309,0.1308,0.1307,0,0.0411,0.0467,0.0493,0.0513,0.0601,0.0659,0.0728,0.0845,0.0924,0.107,0.1141,0.1249,0.1327,0.1359,0.1375,0.137,0.1412,0.1395,0.1297,0.1286,0.1389,0.138,0.1472,0.1472,0.1472,0.1472,0.1471,0,0.0375,0.0394,0.048,0.0487,0.0563,0.0643,0.0749,0.0834,0.0972,0.1065,0.1182,0.1277,0.1353,0.1389,0.1389,0.1351,0.1432,0.1317,0.129,0.1402,0.1395,0.1394,0.1385,0.1473,0.1472,0.1472,0.1472,0,0.0301,0.0343,0.0387,0.0492,0.0537,0.0598,0.0763,0.0834,0.0972,0.1106,0.1163,0.1302,0.1338,0.1375,0.1408,0.1359,0.1333,0.1318,0.1428,0.1405,0.1191,0.1184,0.1202,0.1197,0.1193,0.119,0.1187,0,0.0245,0.026,0.0376,0.043,0.0486,0.0599,0.0676,0.0828,0.092,0.1113,0.1166,0.1264,0.1339,0.1282,0.1296,0.1267,0.1266,0.1245,0.1237,0.1195,0.1167,0.1166,0.1164,0.118,0.1179,0.1178,0.1177,0,0.0162,0.0218,0.0263,0.0366,0.046,0.0563,0.0696,0.0763,0.0942,0.1059,0.1181,0.1211,0.1241,0.123,0.1212,0.1194,0.1233,0.1203,0.1212,0.1205,0.1169,0.1145,0.1148,0.1164,0.1166,0.1167,0.1168,0,0.0118,0.0147,0.022,0.0342,0.0416,0.0517,0.0601,0.0734,0.084,0.1069,0.1089,0.118,0.1264,0.1192,0.1164,0.1122,0.1109,0.1076,0.1092,0.1107,0.1047,0.0986,0.0911,0,0,0,0,0,0.0087,0.0146,0.0206,0.0321,0.0374,0.0459,0.0604,0.0695,0.0868,0.094,0.1033,0.1069,0.1064,0.108,0.1012,0.1046,0.1065,0.0954,0.1025,0.1087,0.1103,0.1032,0,0,0,0,0,0,0.0077,0.0117,0.019,0.0265,0.035,0.0423,0.0533,0.0657,0.072,0.0888,0.0894,0.0991,0.0986,0.1105,0.0996,0.0989,0.1005,0.0992,0.0988,0.1078,0.1092,0.1105,0.1038,0,0,0,0,0]},{"header":{"parameterUnit":"m.s-1","parameterCategory":2,"la1":30.2991,"la2":30.254,"lo1":-89.0895,"lo2":-89.0444,"dy":0.0017,"dx":0.0017,"nx":28,"ny":28,"refTime":"2023-10-16T09:00:00:Z","depth":"4","parameterNumber":3,"parameterNumberName":"V-component_of_CURRENTS"},"data":[0,0,0,0,0,0,0,0,0,0,0,0,0,0,0,0,0,0,0,0,0,0,0,0,0,0,0,0,0,0,0,0,0,0,0,0,0,0,0,0,0,0,0,0,0,0,0,0,0,0,0,0,0,0,0,0,0,0,0.0498,0.0498,0,0.0519,0.052,0.052,0.0554,0.0554,0.0555,0.0555,0.0503,0.0501,0.0499,0,0,0,0,0,0,0,0,0,0,0,0,0,0.0421,0.0422,0.0498,0.0498,0.0498,0.0519,0.052,0.052,0.0554,0.0554,0.0555,0.0555,0.0503,0.0501,0.0499,0,0,0,0,0,0,0,0,0,0,0,0,0,0.0451,0.0423,0.0498,0.0516,0.0518,0.0519,0.052,0.052,0.0553,0.0554,0.0555,0.0555,0.0504,0.0501,0.0498,0.0467,0,0,0.049,0.0489,0,0,0,0,0,0,0,0,0.0449,0.0454,0.0514,0.0515,0.0517,0.0533,0.0473,0.0498,0.0553,0.0541,0.0555,0.0556,0.0504,0.0502,0.0507,0.0465,0.0462,0.049,0.0488,0.0487,0.0486,0,0,0,0,0,0,0,0.0447,0.0453,0.0508,0.0514,0.0516,0.0501,0.0507,0.0478,0.0518,0.0543,0.0545,0.0545,0.0505,0.051,0.0506,0.0462,0.049,0.0487,0.0486,0.0485,0.0413,0.0412,0,0,0,0,0,0,0.0445,0.0451,0.0507,0.0508,0.0483,0.0502,0.0509,0.0529,0.052,0.052,0.0544,0.0546,0.0514,0.0509,0.0504,0.048,0.0487,0.0484,0.0483,0.0413,0.0413,0.0412,0,0,0,0,0,0,0.0443,0.045,0.0506,0.0478,0.0484,0.0503,0.0525,0.0529,0.0543,0.0522,0.0521,0.0556,0.0515,0.0508,0.0486,0.0478,0.0483,0.0481,0.0413,0.0413,0.0412,0.0423,0,0,0,0,0,0,0.0441,0.045,0.046,0.0478,0.0485,0.051,0.0524,0.0528,0.0541,0.0544,0.0531,0.0527,0.0515,0.049,0.0483,0.0474,0.0478,0.0414,0.0413,0.0413,0.0423,0.0423,0.0423,0,0,0,0,0,0.0439,0.0452,0.0461,0.0467,0.0501,0.051,0.0513,0.0528,0.0541,0.0545,0.0538,0.0528,0.0482,0.0488,0.0479,0.0469,0.0414,0.0413,0.0413,0.0423,0.0423,0.0423,0,0,0,0,0,0,0.0418,0.0457,0.0468,0.0491,0.05,0.0516,0.0521,0.0531,0.0531,0.0537,0.0521,0.0515,0.0493,0.0479,0.0485,0.0448,0.0447,0.0445,0.0458,0.0457,0.0457,0.0438,0.0476,0,0,0,0,0,0.0419,0.0445,0.0466,0.0482,0.0491,0.0507,0.0512,0.0526,0.0528,0.0532,0.0519,0.0504,0.0482,0.047,0.0449,0.0424,0.0382,0.0414,0.0414,0.0414,0.0393,0.0317,0.0308,0.041,0.041,0.041,0,0,0.0414,0.0438,0.0451,0.048,0.0493,0.0497,0.0514,0.0529,0.0527,0.0521,0.0513,0.05,0.0475,0.0453,0.0441,0.0442,0.0367,0.0413,0.0414,0.0392,0.0315,0.0305,0.0296,0.041,0.041,0.041,0,0,0.0409,0.0441,0.0457,0.0466,0.0487,0.0496,0.0502,0.0519,0.0525,0.0516,0.0509,0.0485,0.0465,0.0436,0.042,0.0402,0.0369,0.0411,0.0392,0.032,0.031,0.0301,0.0253,0.0239,0.0411,0.0412,0.0412,0,0.0397,0.0426,0.0456,0.0466,0.0472,0.0495,0.05,0.0503,0.0508,0.0494,0.0515,0.0463,0.0448,0.0397,0.0401,0.0398,0.0364,0.0397,0.0318,0.0308,0.0298,0.025,0.0235,0.0412,0.0412,0.0412,0.0412,0,0.0398,0.0419,0.0427,0.0452,0.0459,0.047,0.048,0.0481,0.0493,0.0484,0.045,0.0433,0.0399,0.0397,0.0396,0.0326,0.0328,0.0326,0.0316,0.0288,0.0241,0.0224,0.0413,0.0412,0.0412,0.0412,0,0,0.0388,0.0421,0.0428,0.0438,0.0458,0.0469,0.0459,0.0449,0.0437,0.0431,0.0398,0.0367,0.0361,0.0342,0.0337,0.0279,0.0197,0.0281,0.0277,0.0229,0.0051,0.0101,0.0088,0.0185,0.0182,0.018,0.0052,0,0.038,0.0403,0.0415,0.0427,0.0442,0.0448,0.0438,0.0429,0.0421,0.0391,0.0357,0.0334,0.0341,0.034,0.0277,0.021,0.0152,0.0232,0.0088,0.0083,0.0126,0.0069,0.017,0.004,0.0036,0.0033,0.0031,0,0.039,0.04,0.0421,0.0432,0.0437,0.0442,0.0437,0.0429,0.0382,0.0374,0.033,0.0308,0.0228,0.0252,0.0098,0.0153,0.01,0.0051,0.0045,0.0069,0.0101,0.0067,0.0002,0.0004,0.0006,0.0008,0.001,0,0.0403,0.0413,0.0436,0.0441,0.0447,0.0451,0.0453,0.0426,0.0426,0.0368,0.0357,0.0253,0.0227,0.0115,0.0034,0.0057,-0.0133,-0.0117,-0.0127,-0.0123,-0.0132,-0.0121,-0.0235,-0.0235,-0.0235,-0.0235,-0.0234,0,0.0415,0.0432,0.045,0.0463,0.0479,0.0476,0.0488,0.0469,0.0443,0.0432,0.0363,0.0331,0.0192,0.0085,-0.0003,-0.0116,-0.0167,-0.0156,-0.0167,-0.0119,-0.0106,-0.0143,-0.013,-0.0239,-0.0238,-0.0237,-0.0237,0,0.0445,0.0461,0.0485,0.0491,0.0499,0.0521,0.0545,0.0545,0.0516,0.0498,0.0486,0.0372,0.0231,0.0095,-0.0091,-0.0139,-0.0267,-0.0285,-0.0223,-0.0224,-0.02,-0.0186,-0.0336,-0.0336,-0.0336,-0.0335,-0.0335,0,0.0463,0.0482,0.0517,0.0545,0.0557,0.059,0.0611,0.0598,0.0598,0.0527,0.0512,0.0382,0.0299,0.0061,-0.0084,-0.0274,-0.027,-0.0333,-0.0277,-0.0222,-0.0218,-0.0204,-0.019,-0.0335,-0.0334,-0.0334,-0.0334,0,0.0465,0.0495,0.0509,0.0569,0.061,0.0653,0.0676,0.0679,0.0651,0.0634,0.054,0.0419,0.0264,0.0076,-0.0061,-0.0191,-0.0305,-0.033,-0.0331,-0.0279,-0.0222,-0.0215,-0.0202,-0.0333,-0.0333,-0.0334,-0.0334,0,0.0468,0.05,0.0527,0.0583,0.0639,0.0683,0.0696,0.0686,0.0681,0.0611,0.0577,0.0409,0.0311,0.0119,-0.0021,-0.014,-0.0155,-0.0172,-0.0181,-0.0184,-0.0087,0.001,-0.0064,0,0,0,0,0,0.0464,0.0505,0.0538,0.0595,0.0644,0.0681,0.0718,0.0719,0.0699,0.0654,0.0621,0.0483,0.0277,0.0165,0.0056,-0.002,-0.0186,-0.0151,-0.0212,-0.0328,-0.0329,-0.0235,0,0,0,0,0,0,0.0468,0.0504,0.0527,0.0571,0.0623,0.0672,0.0706,0.069,0.066,0.0632,0.0517,0.0482,0.0268,0.0345,0.006,0.0021,-0.0026,-0.0247,-0.0248,-0.0327,-0.0328,-0.0329,-0.0233,0,0,0,0,0]}]]